SCP
0 0 0 0 0 0 0 0 0 0 0 0 1 1 1 1 1 1 2 2 2 2 2 2 2 3 3 3 2 2 2 2 2 2 2 2 2 1 1 1 1 1 1 1
0 0 0 0 0 0 0 0 0 0 0 1 1 1 1 1 1 1 1 2 2 2 2 2 2 3 3 3 3 2 2 2 2 2 2 2 2 2 1 1 1 1 1 1
0 0 0 0 0 0 0 0 0 0 0 1 1 1 1 1 1 1 1 2 2 2 2 2 2 2 3 3 3 3 3 2 2 2 2 2 2 2 2 1 1 1 1 1
0 0 0 0 0 0 0 0 0 0 0 1 1 1 1 1 1 1 2 2 2 2 2 2 2 2 2 2 2 3 3 2 2 2 2 2 2 2 2 2 1 1 1 1
0 0 0 0 0 0 0 0 0 0 1 1 1 1 1 1 2 2 2 2 2 2 2 2 2 2 2 2 2 2 2 2 2 2 2 2 2 2 2 2 1 1 1 1
0 0 0 0 0 0 0 0 0 0 1 1 1 1 1 2 2 2 2 2 2 2 2 2 2 2 2 2 2 2 2 2 2 2 2 2 2 2 2 2 1 1 1 1
0 0 0 0 0 0 0 0 1 1 1 1 1 1 2 2 2 2 2 2 2 2 2 2 2 2 2 2 2 2 2 2 2 2 2 2 2 2 2 2 1 1 1 1
0 0 0 0 0 1 1 1 1 1 1 1 2 2 2 2 2 2 2 2 2 2 2 2 2 2 2 2 2 2 2 2 2 2 1 1 1 1 1 1 1 1 1 1
0 0 1 1 1 1 1 1 1 1 1 2 2 2 2 2 2 2 2 2 2 2 2 2 2 2 2 2 2 2 1 1 1 1 1 1 1 1 1 1 1 1 1 1
1 1 1 1 1 1 1 1 1 1 1 2 2 2 2 2 2 2 2 2 2 2 2 2 1 1 1 1 1 1 1 1 1 1 1 1 1 1 1 1 1 1 1 1
1 1 1 1 1 1 1 1 1 1 1 1 2 2 2 2 2 2 2 1 1 1 1 1 1 1 1 1 1 1 1 1 1 1 1 1 0 0 0 0 0 0 0 0
1 1 1 1 1 1 1 1 1 1 1 1 1 2 2 2 2 2 1 1 1 1 1 1 1 1 1 1 1 1 1 1 1 1 0 0 0 0 0 0 0 0 0 0
1 1 1 1 1 1 1 1 1 1 1 1 1 2 2 1 1 1 1 1 1 1 1 1 1 1 1 1 1 1 1 1 1 0 0 0 0 0 0 0 0 0 0 0
1 1 1 1 1 1 1 1 1 1 1 1 1 2 1 1 1 1 1 1 1 1 1 1 1 1 1 1 1 1 1 1 0 0 1 1 0 0 0 0 0 0 0 0
1 1 1 1 1 1 1 1 1 1 1 1 1 1 1 1 1 1 1 1 1 1 1 1 1 1 1 1 1 1 1 0 0 0 1 1 0 0 0 0 0 0 0 0
0 0 1 1 1 1 1 1 1 1 1 1 1 1 1 1 1 1 1 1 1 1 1 1 1 1 1 1 1 0 0 0 0 0 0 0 0 0 0 0 0 0 0 0
0 0 0 1 1 1 1 1 1 1 1 1 1 1 1 1 1 1 1 1 1 1 1 1 1 1 0 0 0 0 0 0 0 0 0 0 0 0 0 0 0 0 0 0
0 0 0 1 1 1 1 1 1 1 1 1 1 1 1 1 1 1 1 1 1 1 1 1 0 0 0 0 0 0 0 0 0 0 0 0 0 0 0 0 0 0 0 0
0 0 0 0 0 0 0 0 0 1 1 1 1 1 1 1 1 1 1 1 0 0 0 0 0 0 0 0 0 0 0 0 0 0 0 0 0 0 0 0 0 0 0 0
0 0 0 0 0 0 0 0 0 0 0 0 0 0 0 0 0 0 0 0 0 0 0 0 0 0 0 0 0 0 0 0 0 0 0 0 0 0 0 0 0 0 0 0
0 0 0 0 0 0 0 0 0 0 0 0 0 0 0 0 0 0 0 0 0 0 0 0 0 0 0 0 0 0 0 0 0 0 0 0 0 0 0 0 0 0 0 0
0 0 0 0 0 0 0 0 0 0 0 0 0 0 0 0 0 0 0 0 0 0 0 0 0 0 0 0 0 0 0 0 0 0 0 0 0 0 0 0 0 0 0 0
0 0 0 0 0 0 0 0 0 0 0 0 0 0 0 0 0 0 0 0 0 0 0 0 0 0 0 0 0 0 0 0 0 0 0 0 0 0 0 0 0 0 0 0
0 0 0 0 0 0 0 0 0 0 0 0 0 0 0 0 0 0 0 0 0 0 0 0 0 0 0 0 0 0 0 0 0 0 0 0 0 0 0 0 0 0 0 0
0 0 0 0 0 0 0 0 0 0 0 0 0 0 0 0 0 0 0 0 0 0 0 0 0 0 0 0 0 0 0 0 0 0 0 0 0 0 0 0 0 0 0 0
0 0 0 0 0 0 0 0 0 0 0 0 0 0 0 0 0 0 0 0 0 0 0 0 0 0 0 0 0 0 0 0 0 0 0 0 0 0 0 0 0 0 0 0
0 0 0 0 0 0 0 0 0 0 0 0 0 0 0 0 0 0 0 0 0 0 0 0 0 0 0 0 0 0 0 0 0 0 0 0 0 0 0 0 0 0 0 0
Wind_Speed
13 11 11 12 14 15 15 13 11 7 8 8 7 6 6 6 6 6 6 7 7 7 6 5 5 4 4 4 4 4 4 4 4 3 3 3 3 3 2 2 3 3 2 2
13 14 12 12 14 15 15 13 11 9 6 5 7 7 7 6 6 5 6 6 7 7 6 5 5 4 4 4 4 4 3 3 3 3 3 3 3 3 2 2 2 2 2 1
11 12 11 14 13 13 12 11 10 9 5 5 6 6 7 7 5 5 6 6 6 5 5 5 5 4 4 4 4 3 3 3 3 3 3 3 3 3 3 3 3 2 2 2
10 10 14 9 8 9 9 8 7 6 6 7 6 5 6 7 7 7 7 7 7 5 5 5 5 4 4 4 4 3 3 2 2 3 3 3 3 3 3 3 3 3 3 3
9 11 11 8 8 7 7 6 5 5 6 6 7 6 6 8 8 8 7 7 6 5 5 5 5 4 4 4 4 4 3 3 3 3 3 3 3 3 3 3 3 3 3 4
10 10 10 7 7 6 7 7 4 3 5 6 7 5 5 8 9 8 8 6 5 6 6 6 5 5 5 4 4 3 2 3 3 3 2 3 3 3 3 3 3 4 5 5
12 11 6 3 4 6 8 4 2 4 5 5 3 4 8 10 10 9 8 7 6 6 6 5 5 5 5 4 4 3 3 4 4 4 2 3 4 3 3 4 4 4 5 5
11 11 5 1 3 2 2 4 3 3 4 4 7 9 11 11 10 9 8 8 8 6 6 5 5 5 5 4 4 4 4 5 5 4 3 4 4 4 3 4 4 4 4 4
4 2 2 3 3 4 4 3 3 4 5 7 8 9 10 10 9 8 8 7 6 7 6 5 5 5 5 4 4 4 5 5 5 4 5 4 4 4 2 2 3 3 4 4
2 4 3 3 4 3 4 3 3 5 7 8 8 10 11 9 8 7 7 6 6 6 6 6 6 6 5 4 4 4 4 4 4 5 6 6 5 4 3 3 3 3 3 4
3 4 4 3 2 3 4 4 5 6 6 7 9 11 10 8 8 7 6 5 6 6 6 6 5 5 4 4 4 4 4 4 4 5 6 6 6 5 4 5 3 3 3 4
2 2 2 3 3 4 4 5 6 7 8 7 9 10 10 8 7 6 6 6 6 6 6 6 5 4 4 4 3 3 3 3 3 4 5 5 5 6 11 8 9 9 7 5
1 2 3 1 2 4 5 5 6 7 9 8 8 9 9 8 7 6 6 6 6 6 6 5 5 4 4 3 3 3 3 3 3 4 4 4 4 5 5 6 9 9 7 6
3 3 4 3 2 4 6 6 7 8 9 9 8 9 8 8 7 7 6 6 6 6 6 5 5 5 4 3 3 3 3 4 3 3 3 3 4 4 4 4 4 4 5 5
1 1 3 3 2 5 6 6 7 8 8 9 8 8 8 8 7 7 6 6 7 6 6 5 5 5 4 3 3 3 3 3 3 3 3 3 3 3 4 4 4 4 4 4
1 2 5 5 5 6 7 8 8 8 7 8 7 7 7 8 8 7 6 6 6 6 5 5 5 4 3 3 3 3 3 4 3 2 3 3 3 3 3 3 3 3 3 3
2 4 6 6 6 6 6 7 7 7 8 8 8 7 7 7 8 7 7 6 6 5 5 5 4 4 4 3 2 2 3 3 3 3 3 3 3 3 3 3 3 3 3 2
3 3 3 4 5 5 5 7 8 8 8 8 8 7 7 7 7 6 6 6 6 6 5 5 4 4 4 3 2 2 2 3 2 3 3 3 3 3 3 3 3 3 3 3
4 4 4 4 5 5 5 6 6 7 7 7 7 6 6 6 6 6 5 6 6 5 5 5 4 4 3 3 3 2 2 2 3 4 3 3 2 2 2 3 3 3 3 3
4 4 6 6 6 6 6 6 6 6 6 7 6 6 6 6 6 6 6 5 3 3 4 4 4 4 3 4 3 2 2 3 4 4 3 2 2 3 3 3 3 3 3 3
5 6 6 6 5 6 6 7 6 6 6 6 6 6 6 5 6 5 5 5 5 4 5 5 3 3 3 3 2 2 2 3 3 3 3 2 3 3 3 3 3 2 2 2
5 6 6 6 6 5 5 5 5 6 6 5 6 6 6 5 5 5 4 4 5 4 3 3 4 5 4 2 2 2 2 3 2 2 2 2 3 3 3 3 3 3 2 2
4 5 6 6 6 6 5 5 5 5 5 5 5 5 4 3 3 4 4 4 5 5 3 4 6 6 4 1 2 2 3 3 3 2 2 2 2 2 2 2 2 2 2 2
4 4 5 5 6 6 6 5 5 5 5 5 5 5 4 3 3 3 5 6 6 6 4 5 6 4 1 2 2 2 3 3 2 2 2 2 2 2 2 2 2 2 2 2
4 5 5 5 5 5 5 6 6 6 5 4 5 4 3 3 4 5 5 5 7 7 5 6 5 3 2 2 3 3 3 3 2 2 2 2 2 2 2 2 2 2 1 1
5 4 4 4 4 4 4 4 4 4 4 4 4 4 4 4 5 5 4 6 6 6 5 5 4 3 2 3 3 3 3 3 3 2 2 2 2 2 2 2 2 1 1 2
5 4 4 4 4 4 4 4 4 4 4 4 4 5 5 5 4 4 5 5 5 5 4 4 4 4 3 3 3 3 3 3 2 2 2 2 2 2 2 1 1 1 1 2
Wind_Direction
257 249 228 218 218 224 232 240 247 223 195 176 165 144 124 116 114 108 106 104 103 101 100 106 113 115 116 119 123 135 141 147 146 156 165 165 163 165 167 178 179 162 159 160
251 252 237 226 222 225 229 232 234 230 217 166 140 128 128 119 117 113 112 104 105 108 107 106 107 110 110 112 112 110 119 126 122 139 142 142 143 137 135 139 119 115 125 115
245 245 249 236 225 226 230 235 233 228 214 160 146 145 141 134 132 130 121 105 98 101 106 108 106 106 108 103 103 106 104 108 121 128 130 136 144 132 128 120 112 101 95 94
249 241 238 243 231 227 232 231 220 196 168 171 159 140 135 132 128 114 106 108 102 98 97 99 101 99 98 101 101 103 95 90 95 112 120 124 121 117 119 116 110 103 88 88
246 241 233 233 234 224 224 227 221 201 167 150 143 142 122 109 109 107 102 101 106 110 105 92 86 90 93 91 92 88 88 78 79 92 100 105 109 109 104 106 102 103 101 97
242 244 237 220 220 225 211 216 218 193 158 157 165 168 129 112 106 101 98 95 99 100 97 92 86 83 88 88 89 87 86 87 83 81 91 102 102 107 108 107 106 101 95 90
241 241 242 261 237 218 221 194 148 145 143 149 149 107 112 110 107 102 98 96 92 86 86 85 87 88 88 86 84 79 75 76 76 74 80 89 92 90 102 102 103 100 96 87
235 240 226 315 260 224 85 69 96 116 140 124 101 112 117 112 107 105 101 92 87 85 83 79 83 87 86 74 75 74 75 75 71 69 68 76 83 77 83 108 114 110 106 95
227 205 104 56 74 63 79 83 102 128 126 113 115 119 115 112 110 107 103 97 92 90 84 78 76 80 82 70 71 74 74 75 73 71 70 67 75 81 84 107 121 117 108 103
180 163 125 90 88 84 87 86 92 113 123 121 123 124 118 115 114 112 107 102 99 95 89 81 73 73 77 72 75 82 84 81 82 84 77 67 60 62 62 58 76 93 97 96
194 167 152 141 149 125 109 103 100 98 106 119 121 121 118 118 116 114 108 99 96 94 90 86 81 76 72 75 78 85 88 90 90 87 85 76 70 53 61 60 58 81 84 86
189 171 159 144 138 126 119 115 111 105 99 101 111 118 120 119 115 109 104 100 97 95 92 86 82 76 71 78 85 102 105 101 102 104 103 101 100 81 56 62 67 68 74 91
99 124 106 107 113 113 116 114 108 107 109 107 112 115 114 112 112 108 106 105 101 99 95 89 85 82 77 69 71 80 94 96 104 114 118 119 117 113 103 74 65 64 66 79
39 88 114 128 123 123 119 120 111 104 105 109 110 110 111 110 109 110 110 108 107 104 100 95 88 81 76 75 72 80 96 105 111 111 110 110 111 113 116 117 105 86 72 80
49 119 134 125 130 129 124 128 125 114 111 111 110 112 113 112 111 108 107 109 109 108 105 100 92 80 73 86 88 88 94 104 103 103 112 114 112 110 107 105 104 107 104 91
204 182 159 154 153 152 147 141 130 125 124 119 113 112 114 112 110 107 105 106 110 106 102 98 93 84 83 91 92 90 89 98 116 118 113 114 111 109 111 109 108 104 106 105
211 193 170 159 153 148 140 132 129 132 129 124 121 119 122 120 115 113 111 107 100 96 96 93 91 87 84 86 87 93 106 110 108 112 103 99 99 101 105 105 102 101 96 90
222 213 173 154 141 138 136 131 133 131 124 124 125 126 130 127 123 120 119 117 109 100 93 92 90 90 84 78 64 80 88 103 109 103 102 97 96 105 110 106 110 110 112 112
197 181 159 143 130 131 134 129 125 123 126 130 129 123 120 120 120 119 119 120 120 116 107 104 100 100 89 72 63 78 88 99 105 95 92 98 110 106 103 107 108 110 108 107
178 167 150 144 141 140 138 130 124 127 129 126 124 123 121 123 122 120 115 109 106 105 114 115 121 109 102 92 84 100 99 97 103 106 109 108 99 96 96 96 95 96 98 102
161 149 144 142 137 131 131 131 134 132 126 125 126 130 126 128 133 132 129 121 110 107 115 120 120 111 107 100 107 117 113 109 107 110 111 109 103 100 100 101 101 102 100 97
149 146 145 142 134 127 125 131 136 133 130 131 132 131 130 133 131 121 112 119 122 119 133 134 120 98 96 115 133 123 117 111 99 92 92 90 90 89 88 92 94 94 90 88
135 137 137 134 133 134 133 134 136 136 141 139 135 136 136 131 139 138 129 121 125 123 125 105 100 93 66 123 122 121 109 103 98 92 91 92 90 90 91 90 88 86 84 86
132 132 131 134 137 140 143 144 136 135 141 141 141 141 145 141 126 112 110 117 117 123 115 109 111 105 98 132 123 119 113 108 102 93 93 96 95 95 91 86 86 84 85 85
147 148 150 149 145 146 145 144 145 151 159 152 147 148 150 130 122 116 116 123 135 135 127 126 131 130 144 128 122 116 108 98 96 92 92 92 95 95 91 83 82 86 88 89
158 162 156 154 144 147 157 162 162 156 153 150 147 139 128 117 118 125 132 133 132 134 135 136 140 148 145 128 118 111 110 113 114 109 100 101 97 95 96 95 98 86 81 80
158 154 155 158 162 168 168 167 161 154 149 145 140 135 130 129 132 135 137 139 144 145 145 148 150 150 141 133 127 125 124 117 105 93 92 97 97 99 104 106 97 91 91 93